"read_dt","SO2 (ppb)","flags","PMT voltage (V)","lamp voltage (V)","lamp intensity (Hz)","internal temp (C)","react chamber temp (C)","sample flow (l/min)","pres (mmHg)","SO2 bkg (ppb)","SO2 coefficient"
2014-10-31 00:00:00,2239E-3,5C000000,-0724,0830,12361,028.0,045.4,0.476,733.5,01.19,0.508
2014-10-31 00:01:00,2192E-3,5C000000,-0724,0830,12296,028.0,045.4,0.476,733.5,01.19,0.508
2014-10-31 00:02:00,2219E-3,5C000000,-0724,0830,12158,028.0,045.5,0.476,733.5,01.19,0.508
2014-10-31 00:03:00,2242E-3,5C000000,-0724,0831,12122,028.1,045.5,0.476,733.5,01.19,0.508
2014-10-31 00:04:00,2258E-3,5C000000,-0724,0829,12049,028.1,045.5,0.476,733.4,01.19,0.508
2014-10-31 00:05:00,2257E-3,5C000000,-0724,0830,12219,028.2,045.5,0.476,733.5,01.19,0.508
2014-10-31 00:06:00,2437E-3,5C000000,-0724,0830,12112,028.2,045.5,0.476,733.4,01.19,0.508
2014-10-31 00:07:00,2258E-3,5C000000,-0724,0831,12084,028.2,045.5,0.476,733.5,01.19,0.508
2014-10-31 00:08:00,2317E-3,5C000000,-0724,0830,12172,028.3,045.5,0.476,733.5,01.19,0.508
2014-10-31 00:09:00,2142E-3,5C000000,-0724,0830,12124,028.3,045.5,0.476,733.5,01.19,0.508
2014-10-31 00:10:00,2107E-3,5C000000,-0724,0831,12268,028.3,045.5,0.476,733.5,01.19,0.508
2014-10-31 00:11:00,2111E-3,5C000000,-0724,0830,12180,028.4,045.5,0.476,733.5,01.19,0.508
2014-10-31 00:12:00,2382E-3,5C000000,-0724,0830,12182,028.4,045.4,0.476,733.4,01.19,0.508
2014-10-31 00:13:00,2119E-3,5C000000,-0724,0831,12181,028.4,045.5,0.475,733.4,01.19,0.508
2014-10-31 00:14:00,2211E-3,5C000000,-0724,0830,12147,028.5,045.5,0.476,733.4,01.19,0.508
2014-10-31 00:15:00,2132E-3,5C000000,-0724,0829,12233,028.5,045.5,0.476,733.4,01.19,0.508
2014-10-31 00:16:00,2326E-3,5C000000,-0724,0830,12249,028.5,045.5,0.475,733.4,01.19,0.508
2014-10-31 00:17:00,2232E-3,5C000000,-0724,0833,12331,028.6,045.5,0.475,733.4,01.19,0.508
2014-10-31 00:18:00,2112E-3,5C000000,-0724,0831,12124,028.6,045.5,0.475,733.3,01.19,0.508
2014-10-31 00:19:00,2288E-3,5C000000,-0724,0831,12186,028.6,045.5,0.475,733.4,01.19,0.508
2014-10-31 00:20:00,2368E-3,5C000000,-0724,0830,12169,028.7,045.5,0.475,733.4,01.19,0.508
2014-10-31 00:21:00,2272E-3,5C000000,-0724,0831,12128,028.7,045.5,0.475,733.3,01.19,0.508
2014-10-31 00:22:00,2245E-3,5C000000,-0724,0831,12113,028.7,045.5,0.475,733.3,01.19,0.508
2014-10-31 00:23:00,2268E-3,5C000000,-0724,0831,12146,028.8,045.5,0.475,733.3,01.19,0.508
2014-10-31 00:24:00,2280E-3,5C000000,-0724,0831,12184,028.8,045.5,0.475,733.3,01.19,0.508
2014-10-31 00:25:00,2180E-3,5C000000,-0724,0831,12209,028.8,045.4,0.475,733.3,01.19,0.508
2014-10-31 00:26:00,2350E-3,5C000000,-0724,0830,12135,028.8,045.4,0.475,733.3,01.19,0.508
2014-10-31 00:27:00,2256E-3,5C000000,-0724,0831,12164,028.9,045.5,0.475,733.3,01.19,0.508
2014-10-31 00:28:00,2185E-3,5C000000,-0724,0830,12356,028.7,045.5,0.475,733.3,01.19,0.508
2014-10-31 00:29:00,2246E-3,5C000000,-0724,0831,12260,028.7,045.5,0.475,733.3,01.19,0.508
2014-10-31 00:30:00,2290E-3,5C000000,-0724,0831,12250,028.5,045.5,0.475,733.3,01.19,0.508
2014-10-31 00:31:00,2235E-3,5C000000,-0724,0830,12286,028.4,045.5,0.475,733.3,01.19,0.508
2014-10-31 00:32:00,2353E-3,5C000000,-0724,0831,12143,028.3,045.5,0.475,733.2,01.19,0.508
2014-10-31 00:33:00,2100E-3,5C000000,-0724,0830,12021,028.2,045.5,0.475,733.3,01.19,0.508
2014-10-31 00:34:00,2186E-3,5C000000,-0724,0831,12209,028.2,045.4,0.475,733.2,01.19,0.508
2014-10-31 00:35:00,2241E-3,5C000000,-0724,0830,12255,028.1,045.4,0.475,733.2,01.19,0.508
2014-10-31 00:36:00,2290E-3,5C000000,-0724,0831,12174,028.1,045.5,0.475,733.2,01.19,0.508
2014-10-31 00:37:00,2394E-3,5C000000,-0724,0831,12192,028.0,045.4,0.476,733.2,01.19,0.508
2014-10-31 00:38:00,2209E-3,5C000000,-0724,0830,12285,028.1,045.4,0.476,733.2,01.19,0.508
2014-10-31 00:39:00,2261E-3,5C000000,-0724,0829,12209,028.1,045.5,0.476,733.2,01.19,0.508
2014-10-31 00:40:00,2056E-3,5C000000,-0724,0830,12313,028.2,045.5,0.476,733.1,01.19,0.508
2014-10-31 00:41:00,2386E-3,5C000000,-0724,0830,12278,028.2,045.5,0.476,733.1,01.19,0.508
2014-10-31 00:42:00,2323E-3,5C000000,-0724,0830,12098,028.2,045.4,0.476,733.1,01.19,0.508
2014-10-31 00:43:00,2341E-3,5C000000,-0724,0831,12247,028.3,045.5,0.476,733.2,01.19,0.508
2014-10-31 00:44:00,2310E-3,5C000000,-0724,0829,12141,028.3,045.5,0.476,733.2,01.19,0.508
2014-10-31 00:45:00,2228E-3,5C000000,-0724,0830,12189,028.4,045.5,0.476,733.2,01.19,0.508
2014-10-31 00:46:00,2290E-3,5C000000,-0724,0830,12319,028.4,045.5,0.475,733.1,01.19,0.508
2014-10-31 00:47:00,2374E-3,5C000000,-0724,0830,12329,028.4,045.5,0.475,733.2,01.19,0.508
2014-10-31 00:48:00,2293E-3,5C000000,-0724,0830,12135,028.4,045.5,0.476,733.1,01.19,0.508
2014-10-31 00:49:00,2316E-3,5C000000,-0724,0831,12229,028.5,045.5,0.475,733.1,01.19,0.508
2014-10-31 00:50:00,2355E-3,5C000000,-0724,0831,12211,028.5,045.4,0.475,733.1,01.19,0.508
2014-10-31 00:51:00,2357E-3,5C000000,-0724,0830,12295,028.5,045.5,0.475,733.2,01.19,0.508
2014-10-31 00:52:00,2248E-3,5C000000,-0724,0830,12269,028.6,045.5,0.476,733.1,01.19,0.508
2014-10-31 00:53:00,2412E-3,5C000000,-0724,0830,12238,028.6,045.5,0.475,733.1,01.19,0.508
2014-10-31 00:54:00,2068E-3,5C000000,-0724,0829,12171,028.6,045.5,0.475,733.1,01.19,0.508
2014-10-31 00:55:00,2336E-3,5C000000,-0724,0830,12322,028.7,045.5,0.475,733.1,01.19,0.508
2014-10-31 00:56:00,2296E-3,5C000000,-0724,0830,12183,028.7,045.5,0.475,733.1,01.19,0.508
2014-10-31 00:57:00,2378E-3,5C000000,-0724,0830,12201,028.8,045.4,0.475,733.1,01.19,0.508
2014-10-31 00:58:00,2260E-3,5C000000,-0724,0830,12160,028.8,045.5,0.475,733.1,01.19,0.508
2014-10-31 00:59:00,2330E-3,5C000000,-0724,0830,12142,028.8,045.5,0.474,733.1,01.19,0.508
2014-10-31 01:00:00,2327E-3,5C000000,-0724,0829,12210,028.8,045.5,0.475,733.1,01.19,0.508
2014-10-31 01:01:00,2269E-3,5C000000,-0724,0830,12172,028.8,045.5,0.475,733.1,01.19,0.508
2014-10-31 01:02:00,2351E-3,5C000000,-0724,0829,12155,028.8,045.5,0.475,733.0,01.19,0.508
2014-10-31 01:03:00,2409E-3,5C000000,-0724,0829,12193,028.7,045.5,0.475,733.1,01.19,0.508
2014-10-31 01:04:00,2295E-3,5C000000,-0724,0829,12214,028.6,045.4,0.475,733.1,01.19,0.508
2014-10-31 01:05:00,2289E-3,5C000000,-0724,0829,12135,028.5,045.5,0.475,733.1,01.19,0.508
2014-10-31 01:06:00,2266E-3,5C000000,-0724,0830,12164,028.4,045.4,0.475,733.1,01.19,0.508
2014-10-31 01:07:00,2218E-3,5C000000,-0724,0830,12242,028.3,045.4,0.475,733.1,01.19,0.508
2014-10-31 01:08:00,2273E-3,5C000000,-0724,0830,12189,028.2,045.4,0.475,733.1,01.19,0.508
2014-10-31 01:09:00,2278E-3,5C000000,-0724,0830,12281,028.2,045.4,0.475,733.2,01.19,0.508
2014-10-31 01:10:00,2283E-3,5C000000,-0724,0831,12300,028.1,045.4,0.476,733.0,01.19,0.508
2014-10-31 01:11:00,2226E-3,5C000000,-0724,0830,12240,028.1,045.4,0.476,733.0,01.19,0.508
2014-10-31 01:12:00,2381E-3,5C000000,-0724,0829,12160,028.0,045.5,0.476,733.0,01.19,0.508
2014-10-31 01:13:00,2299E-3,5C000000,-0724,0829,12110,028.0,045.4,0.476,733.0,01.19,0.508
2014-10-31 01:14:00,2252E-3,5C000000,-0724,0830,12173,028.0,045.4,0.476,733.1,01.19,0.508
2014-10-31 01:15:00,2093E-3,5C000000,-0724,0831,12196,028.0,045.4,0.476,733.0,01.19,0.508
2014-10-31 01:16:00,2392E-3,5C000000,-0724,0831,12230,028.0,045.4,0.476,733.0,01.19,0.508
2014-10-31 01:17:00,2161E-3,5C000000,-0724,0830,12255,028.1,045.4,0.476,732.9,01.19,0.508
2014-10-31 01:18:00,2242E-3,5C000000,-0724,0830,12180,028.1,045.5,0.476,733.0,01.19,0.508
2014-10-31 01:19:00,2201E-3,5C000000,-0724,0830,12074,028.1,045.4,0.476,733.0,01.19,0.508
2014-10-31 01:20:00,2143E-3,5C000000,-0724,0829,12228,028.2,045.5,0.476,733.0,01.19,0.508
2014-10-31 01:21:00,2188E-3,5C000000,-0724,0830,12148,028.3,045.4,0.476,732.9,01.19,0.508
2014-10-31 01:22:00,2328E-3,5C000000,-0724,0830,12221,028.3,045.4,0.475,733.0,01.19,0.508
2014-10-31 01:23:00,2353E-3,5C000000,-0724,0829,12257,028.3,045.5,0.476,733.0,01.19,0.508
2014-10-31 01:24:00,2346E-3,5C000000,-0724,0829,12363,028.3,045.5,0.476,732.9,01.19,0.508
2014-10-31 01:25:00,2272E-3,5C000000,-0724,0830,12076,028.4,045.5,0.475,733.0,01.19,0.508
2014-10-31 01:26:00,2283E-3,5C000000,-0724,0830,12232,028.4,045.5,0.476,733.0,01.19,0.508
2014-10-31 01:27:00,2324E-3,5C000000,-0724,0830,12179,028.4,045.4,0.476,733.0,01.19,0.508
2014-10-31 01:28:00,2228E-3,5C000000,-0724,0830,12116,028.5,045.4,0.475,733.0,01.19,0.508
2014-10-31 01:29:00,2431E-3,5C000000,-0724,0830,12380,028.5,045.5,0.475,733.0,01.19,0.508
2014-10-31 01:30:00,2359E-3,5C000000,-0724,0830,12087,028.5,045.5,0.476,733.0,01.19,0.508
2014-10-31 01:31:00,2275E-3,5C000000,-0724,0830,12180,028.6,045.5,0.475,732.9,01.19,0.508
2014-10-31 01:32:00,2395E-3,5C000000,-0724,0830,12139,028.6,045.5,0.475,733.0,01.19,0.508
2014-10-31 01:33:00,2114E-3,5C000000,-0724,0831,12222,028.6,045.4,0.475,733.0,01.19,0.508
2014-10-31 01:34:00,2233E-3,5C000000,-0724,0830,12114,028.7,045.5,0.475,733.0,01.19,0.508
2014-10-31 01:35:00,2168E-3,5C000000,-0724,0831,12216,028.7,045.5,0.475,733.0,01.19,0.508
2014-10-31 01:36:00,2332E-3,5C000000,-0724,0831,12292,028.7,045.5,0.475,732.9,01.19,0.508
2014-10-31 01:37:00,2180E-3,5C000000,-0724,0830,12355,028.8,045.5,0.475,733.0,01.19,0.508
2014-10-31 01:38:00,2321E-3,5C000000,-0724,0830,12262,028.8,045.5,0.475,733.0,01.19,0.508
2014-10-31 01:39:00,2423E-3,5C000000,-0724,0830,12374,028.8,045.5,0.475,733.0,01.19,0.508
2014-10-31 01:40:00,2248E-3,5C000000,-0724,0830,12313,028.8,045.5,0.475,733.0,01.19,0.508
2014-10-31 01:41:00,2349E-3,5C000000,-0724,0830,12325,028.7,045.5,0.475,733.0,01.19,0.508
2014-10-31 01:42:00,2280E-3,5C000000,-0724,0829,12267,028.6,045.5,0.475,733.0,01.19,0.508
2014-10-31 01:43:00,2341E-3,5C000000,-0724,0831,12384,028.5,045.4,0.475,733.0,01.19,0.508
2014-10-31 01:44:00,2315E-3,5C000000,-0724,0830,12231,028.4,045.4,0.475,733.0,01.19,0.508
2014-10-31 01:45:00,2333E-3,5C000000,-0724,0830,12158,028.3,045.4,0.475,733.0,01.19,0.508
2014-10-31 01:46:00,2375E-3,5C000000,-0724,0831,12007,028.2,045.4,0.475,733.0,01.19,0.508
2014-10-31 01:47:00,2239E-3,5C000000,-0724,0831,12144,028.1,045.4,0.475,732.9,01.19,0.508
2014-10-31 01:48:00,2161E-3,5C000000,-0724,0830,12223,028.1,045.5,0.475,733.0,01.19,0.508
2014-10-31 01:49:00,2200E-3,5C000000,-0724,0830,12387,028.1,045.4,0.475,732.9,01.19,0.508
2014-10-31 01:50:00,2148E-3,5C000000,-0724,0831,12083,028.0,045.4,0.475,732.9,01.19,0.508
2014-10-31 01:51:00,2144E-3,5C000000,-0724,0830,12160,028.0,045.4,0.475,732.9,01.19,0.508
2014-10-31 01:52:00,2182E-3,5C000000,-0724,0830,12243,028.0,045.4,0.476,732.9,01.19,0.508
2014-10-31 01:53:00,2383E-3,5C000000,-0724,0830,12313,028.1,045.5,0.476,732.9,01.19,0.508
2014-10-31 01:54:00,2294E-3,5C000000,-0724,0830,12190,028.1,045.4,0.476,732.9,01.19,0.508
2014-10-31 01:55:00,2399E-3,5C000000,-0724,0830,12231,028.2,045.4,0.476,732.9,01.19,0.508
2014-10-31 01:56:00,2328E-3,5C000000,-0724,0829,12151,028.2,045.5,0.476,732.9,01.19,0.508
2014-10-31 01:57:00,2304E-3,5C000000,-0724,0830,12034,028.2,045.5,0.475,732.8,01.19,0.508
2014-10-31 01:58:00,2185E-3,5C000000,-0724,0830,12231,028.3,045.5,0.476,732.8,01.19,0.508
2014-10-31 01:59:00,2141E-3,5C000000,-0724,0831,12315,028.3,045.5,0.476,732.8,01.19,0.508
2014-10-31 02:00:00,2202E-3,5C000000,-0724,0831,12043,028.3,045.5,0.475,732.9,01.19,0.508
2014-10-31 02:01:00,2338E-3,5C000000,-0724,0832,12234,028.4,045.5,0.476,732.8,01.19,0.508
2014-10-31 02:02:00,2267E-3,5C000000,-0724,0830,12194,028.4,045.5,0.476,732.7,01.19,0.508
2014-10-31 02:03:00,2427E-3,5C000000,-0724,0832,12252,028.4,045.5,0.475,732.8,01.19,0.508
2014-10-31 02:04:00,2194E-3,5C000000,-0724,0831,12103,028.5,045.5,0.475,732.8,01.19,0.508
2014-10-31 02:05:00,2234E-3,5C000000,-0724,0831,12037,028.5,045.5,0.475,732.7,01.19,0.508
2014-10-31 02:06:00,2243E-3,5C000000,-0724,0830,12304,028.6,045.5,0.475,732.7,01.19,0.508
2014-10-31 02:07:00,2155E-3,5C000000,-0724,0831,12083,028.6,045.5,0.475,732.7,01.19,0.508
2014-10-31 02:08:00,2269E-3,5C000000,-0724,0830,12261,028.6,045.5,0.475,732.8,01.19,0.508
2014-10-31 02:09:00,2280E-3,5C000000,-0724,0831,12146,028.7,045.5,0.475,732.8,01.19,0.508
2014-10-31 02:10:00,2199E-3,5C000000,-0724,0831,12231,028.7,045.5,0.475,732.7,01.19,0.508
2014-10-31 02:11:00,2158E-3,5C000000,-0724,0831,12294,028.7,045.5,0.475,732.8,01.19,0.508
2014-10-31 02:12:00,2269E-3,5C000000,-0724,0831,12206,028.7,045.5,0.475,732.8,01.19,0.508
2014-10-31 02:13:00,2331E-3,5C000000,-0724,0831,12106,028.8,045.5,0.475,732.8,01.19,0.508
2014-10-31 02:14:00,2260E-3,5C000000,-0724,0830,12272,028.8,045.5,0.475,732.8,01.19,0.508
2014-10-31 02:15:00,2160E-3,5C000000,-0724,0831,12212,028.8,045.5,0.475,732.8,01.19,0.508
2014-10-31 02:16:00,2294E-3,5C000000,-0724,0830,12207,028.8,045.5,0.475,732.8,01.19,0.508
2014-10-31 02:17:00,2271E-3,5C000000,-0724,0830,12232,028.7,045.5,0.474,732.8,01.19,0.508
2014-10-31 02:18:00,2223E-3,5C000000,-0724,0831,12148,028.6,045.5,0.474,732.9,01.19,0.508
2014-10-31 02:19:00,2425E-3,5C000000,-0724,0831,12190,028.5,045.5,0.474,732.9,01.19,0.508
2014-10-31 02:20:00,2330E-3,5C000000,-0724,0831,12270,028.4,045.4,0.475,732.9,01.19,0.508
2014-10-31 02:21:00,2264E-3,5C000000,-0724,0831,12073,028.3,045.4,0.475,732.9,01.19,0.508
2014-10-31 02:22:00,2297E-3,5C000000,-0724,0832,12391,028.2,045.4,0.475,732.9,01.19,0.508
2014-10-31 02:23:00,2186E-3,5C000000,-0724,0831,12271,028.1,045.5,0.476,732.8,01.19,0.508
2014-10-31 02:24:00,2112E-3,5C000000,-0724,0830,12103,028.1,045.5,0.476,732.8,01.19,0.508
2014-10-31 02:25:00,2241E-3,5C000000,-0724,0830,12227,028.1,045.4,0.476,732.8,01.19,0.508
2014-10-31 02:26:00,2128E-3,5C000000,-0724,0830,12256,028.1,045.4,0.476,732.8,01.19,0.508
2014-10-31 02:27:00,2317E-3,5C000000,-0724,0830,12108,028.2,045.4,0.476,732.7,01.19,0.508
2014-10-31 02:28:00,2289E-3,5C000000,-0724,0829,12076,028.2,045.4,0.476,732.8,01.19,0.508
2014-10-31 02:29:00,2348E-3,5C000000,-0724,0830,12249,028.2,045.5,0.475,732.8,01.19,0.508
2014-10-31 02:30:00,2158E-3,5C000000,-0724,0830,12231,028.3,045.5,0.475,732.7,01.19,0.508
2014-10-31 02:31:00,2306E-3,5C000000,-0724,0831,12270,028.3,045.5,0.476,732.7,01.19,0.508
2014-10-31 02:32:00,2218E-3,5C000000,-0724,0832,12063,028.4,045.5,0.476,732.8,01.19,0.508
2014-10-31 02:33:00,2230E-3,5C000000,-0724,0831,12189,028.4,045.5,0.475,732.7,01.19,0.508
2014-10-31 02:34:00,2252E-3,5C000000,-0724,0831,12027,028.4,045.5,0.475,732.7,01.19,0.508
2014-10-31 02:35:00,2199E-3,5C000000,-0724,0830,12047,028.5,045.5,0.476,732.7,01.19,0.508
2014-10-31 02:36:00,2246E-3,5C000000,-0724,0832,12227,028.5,045.5,0.475,732.6,01.19,0.508
2014-10-31 02:37:00,2199E-3,5C000000,-0724,0831,12285,028.5,045.5,0.475,732.6,01.19,0.508
2014-10-31 02:38:00,2442E-3,5C000000,-0724,0831,12223,028.6,045.5,0.475,732.6,01.19,0.508
2014-10-31 02:39:00,2066E-3,5C000000,-0724,0831,12011,028.6,045.5,0.475,732.6,01.19,0.508
2014-10-31 02:40:00,2182E-3,5C000000,-0724,0830,12174,028.6,045.5,0.475,732.6,01.19,0.508
2014-10-31 02:41:00,2252E-3,5C000000,-0724,0830,12144,028.7,045.5,0.475,732.7,01.19,0.508
2014-10-31 02:42:00,2178E-3,5C000000,-0724,0830,12270,028.7,045.5,0.475,732.6,01.19,0.508
2014-10-31 02:43:00,2277E-3,5C000000,-0724,0830,12106,028.7,045.5,0.474,732.6,01.19,0.508
2014-10-31 02:44:00,2281E-3,5C000000,-0724,0832,12216,028.8,045.5,0.474,732.6,01.19,0.508
2014-10-31 02:45:00,2163E-3,5C000000,-0724,0830,12187,028.8,045.5,0.475,732.6,01.19,0.508
2014-10-31 02:46:00,2278E-3,5C000000,-0724,0831,12178,028.8,045.5,0.475,732.5,01.19,0.508
2014-10-31 02:47:00,2262E-3,5C000000,-0724,0831,12184,028.8,045.5,0.475,732.6,01.19,0.508
2014-10-31 02:48:00,2316E-3,5C000000,-0724,0830,12224,028.8,045.5,0.474,732.7,01.19,0.508
2014-10-31 02:49:00,2306E-3,5C000000,-0724,0830,12119,028.8,045.5,0.474,732.7,01.19,0.508
2014-10-31 02:50:00,2327E-3,5C000000,-0724,0831,12308,028.7,045.4,0.474,732.7,01.19,0.508
2014-10-31 02:51:00,2201E-3,5C000000,-0724,0831,12243,028.6,045.4,0.474,732.7,01.19,0.508
2014-10-31 02:52:00,2195E-3,5C000000,-0724,0830,12144,028.4,045.5,0.474,732.8,01.19,0.508
2014-10-31 02:53:00,2232E-3,5C000000,-0724,0830,12299,028.3,045.4,0.475,732.8,01.19,0.508
2014-10-31 02:54:00,2304E-3,5C000000,-0724,0831,12318,028.2,045.4,0.475,732.8,01.19,0.508
2014-10-31 02:55:00,2117E-3,5C000000,-0724,0830,12066,028.2,045.4,0.475,732.8,01.19,0.508
2014-10-31 02:56:00,2279E-3,5C000000,-0724,0831,11904,028.1,045.4,0.476,732.8,01.19,0.508
2014-10-31 02:57:00,2200E-3,5C000000,-0724,0830,12322,028.1,045.4,0.476,732.8,01.19,0.508
2014-10-31 02:58:00,2182E-3,5C000000,-0724,0830,12044,028.1,045.4,0.476,732.8,01.19,0.508
2014-10-31 02:59:00,2127E-3,5C000000,-0724,0830,11989,028.1,045.4,0.476,732.7,01.19,0.508
2014-10-31 03:00:00,2297E-3,5C000000,-0724,0831,12189,028.2,045.5,0.476,732.8,01.19,0.508
2014-10-31 03:01:00,2074E-3,5C000000,-0724,0831,12187,028.2,045.5,0.475,732.7,01.19,0.508
2014-10-31 03:02:00,2266E-3,5C000000,-0724,0831,12133,028.2,045.5,0.476,732.7,01.19,0.508
2014-10-31 03:03:00,2131E-3,5C000000,-0724,0830,12060,028.3,045.5,0.476,732.7,01.19,0.508
2014-10-31 03:04:00,2168E-3,5C000000,-0724,0830,12152,028.3,045.5,0.475,732.7,01.19,0.508
2014-10-31 03:05:00,2233E-3,5C000000,-0724,0831,12220,028.4,045.4,0.475,732.7,01.19,0.508
2014-10-31 03:06:00,2125E-3,5C000000,-0724,0831,12140,028.4,045.5,0.476,732.7,01.19,0.508
2014-10-31 03:07:00,2409E-3,5C000000,-0724,0831,12113,028.4,045.5,0.475,732.7,01.19,0.508
2014-10-31 03:08:00,2318E-3,5C000000,-0724,0831,12210,028.5,045.5,0.475,732.5,01.19,0.508
2014-10-31 03:09:00,2284E-3,5C000000,-0724,0830,12227,028.5,045.5,0.475,732.6,01.19,0.508
2014-10-31 03:10:00,2260E-3,5C000000,-0724,0831,12089,028.5,045.5,0.475,732.6,01.19,0.508
2014-10-31 03:11:00,2282E-3,5C000000,-0724,0832,12196,028.6,045.5,0.475,732.5,01.19,0.508
2014-10-31 03:12:00,2255E-3,5C000000,-0724,0830,12181,028.6,045.5,0.475,732.6,01.19,0.508
2014-10-31 03:13:00,2272E-3,5C000000,-0724,0831,11967,028.6,045.5,0.475,732.6,01.19,0.508
2014-10-31 03:14:00,2221E-3,5C000000,-0724,0830,12145,028.7,045.5,0.475,732.5,01.19,0.508
2014-10-31 03:15:00,2319E-3,5C000000,-0724,0831,12205,028.7,045.5,0.475,732.5,01.19,0.508
2014-10-31 03:16:00,2157E-3,5C000000,-0724,0832,12077,028.7,045.5,0.475,732.5,01.19,0.508
2014-10-31 03:17:00,2260E-3,5C000000,-0724,0831,12191,028.7,045.4,0.475,732.4,01.19,0.508
2014-10-31 03:18:00,2172E-3,5C000000,-0724,0830,12225,028.8,045.5,0.474,732.4,01.19,0.508
2014-10-31 03:19:00,2247E-3,5C000000,-0724,0830,12253,028.8,045.5,0.474,732.5,01.19,0.508
2014-10-31 03:20:00,2370E-3,5C000000,-0724,0830,12310,028.8,045.5,0.474,732.4,01.19,0.508
2014-10-31 03:21:00,2287E-3,5C000000,-0724,0831,12139,028.8,045.5,0.475,732.5,01.19,0.508
2014-10-31 03:22:00,2073E-3,5C000000,-0724,0831,12289,028.8,045.5,0.475,732.5,01.19,0.508
2014-10-31 03:23:00,2321E-3,5C000000,-0724,0831,12347,028.7,045.5,0.475,732.5,01.19,0.508
2014-10-31 03:24:00,2171E-3,5C000000,-0724,0831,12237,028.6,045.4,0.475,732.5,01.19,0.508
2014-10-31 03:25:00,2179E-3,5C000000,-0724,0831,12028,028.5,045.5,0.475,732.5,01.19,0.508
2014-10-31 03:26:00,2227E-3,5C000000,-0724,0830,12218,028.4,045.5,0.475,732.5,01.19,0.508
2014-10-31 03:27:00,2237E-3,5C000000,-0724,0830,12279,028.3,045.5,0.475,732.5,01.19,0.508
2014-10-31 03:28:00,2138E-3,5C000000,-0724,0830,12173,028.2,045.4,0.475,732.6,01.19,0.508
2014-10-31 03:29:00,2258E-3,5C000000,-0724,0830,12224,028.1,045.5,0.475,732.6,01.19,0.508
2014-10-31 03:30:00,2059E-3,5C000000,-0724,0830,12306,028.1,045.5,0.475,732.5,01.19,0.508
2014-10-31 03:31:00,2250E-3,5C000000,-0724,0831,12190,028.0,045.4,0.475,732.6,01.19,0.508
2014-10-31 03:32:00,2078E-3,5C000000,-0724,0830,12192,028.0,045.5,0.475,732.6,01.19,0.508
2014-10-31 03:33:00,2254E-3,5C000000,-0724,0831,12283,028.0,045.4,0.475,732.5,01.19,0.508
2014-10-31 03:34:00,2118E-3,5C000000,-0724,0831,12237,028.1,045.5,0.476,732.6,01.19,0.508
2014-10-31 03:35:00,2163E-3,5C000000,-0724,0831,12309,028.1,045.4,0.476,732.6,01.19,0.508
2014-10-31 03:36:00,2131E-3,5C000000,-0724,0831,12083,028.1,045.5,0.476,732.6,01.19,0.508
2014-10-31 03:37:00,2174E-3,5C000000,-0724,0831,12245,028.2,045.5,0.476,732.6,01.19,0.508
2014-10-31 03:38:00,2128E-3,5C000000,-0724,0831,12182,028.2,045.5,0.475,732.6,01.19,0.508
2014-10-31 03:39:00,2178E-3,5C000000,-0724,0831,12240,028.2,045.5,0.476,732.6,01.19,0.508
2014-10-31 03:40:00,2179E-3,5C000000,-0724,0831,12285,028.3,045.5,0.476,732.6,01.19,0.508
2014-10-31 03:41:00,2196E-3,5C000000,-0724,0831,12159,028.3,045.5,0.475,732.6,01.19,0.508
2014-10-31 03:42:00,2236E-3,5C000000,-0724,0832,12146,028.4,045.5,0.475,732.7,01.19,0.508
2014-10-31 03:43:00,2250E-3,5C000000,-0724,0832,12010,028.4,045.5,0.476,732.7,01.19,0.508
2014-10-31 03:44:00,2132E-3,5C000000,-0724,0831,12191,028.4,045.5,0.475,732.6,01.19,0.508
2014-10-31 03:45:00,2239E-3,5C000000,-0724,0832,12317,028.5,045.5,0.475,732.7,01.19,0.508
2014-10-31 03:46:00,2032E-3,5C000000,-0724,0831,12176,028.5,045.5,0.475,732.7,01.19,0.508
2014-10-31 03:47:00,2048E-3,5C000000,-0724,0831,12197,028.6,045.5,0.475,732.7,01.19,0.508
2014-10-31 03:48:00,2238E-3,5C000000,-0724,0830,12164,028.6,045.5,0.475,732.6,01.19,0.508
2014-10-31 03:49:00,2219E-3,5C000000,-0724,0831,12183,028.7,045.5,0.475,732.7,01.19,0.508
2014-10-31 03:50:00,2252E-3,5C000000,-0724,0832,12247,028.7,045.5,0.475,732.7,01.19,0.508
2014-10-31 03:51:00,2140E-3,5C000000,-0724,0831,12164,028.7,045.5,0.474,732.7,01.19,0.508
2014-10-31 03:52:00,2127E-3,5C000000,-0724,0831,12103,028.7,045.5,0.475,732.7,01.19,0.508
2014-10-31 03:53:00,2162E-3,5C000000,-0724,0831,12115,028.7,045.5,0.475,732.8,01.19,0.508
2014-10-31 03:54:00,2114E-3,5C000000,-0724,0831,12283,028.8,045.4,0.475,732.7,01.19,0.508
2014-10-31 03:55:00,2153E-3,5C000000,-0724,0832,12256,028.8,045.5,0.475,732.7,01.19,0.508
2014-10-31 03:56:00,2099E-3,5C000000,-0724,0832,12179,028.8,045.5,0.474,732.8,01.19,0.508
2014-10-31 03:57:00,2167E-3,5C000000,-0724,0831,12278,028.7,045.5,0.474,732.8,01.19,0.508
2014-10-31 03:58:00,2132E-3,5C000000,-0724,0831,12057,028.6,045.5,0.474,732.8,01.19,0.508
2014-10-31 03:59:00,2094E-3,5C000000,-0724,0831,12268,028.5,045.4,0.474,732.8,01.19,0.508
2014-10-31 04:00:00,2170E-3,5C000000,-0724,0831,12204,028.4,045.4,0.475,732.8,01.19,0.508
2014-10-31 04:01:00,2223E-3,5C000000,-0724,0831,12179,028.3,045.4,0.475,732.8,01.19,0.508
2014-10-31 04:02:00,2146E-3,5C000000,-0724,0831,12352,028.2,045.4,0.475,732.8,01.19,0.508
2014-10-31 04:03:00,2177E-3,5C000000,-0724,0830,12069,028.1,045.5,0.476,732.9,01.19,0.508
2014-10-31 04:04:00,2139E-3,5C000000,-0724,0831,12102,028.0,045.4,0.476,732.9,01.19,0.508
2014-10-31 04:05:00,2101E-3,5C000000,-0724,0830,12257,028.0,045.4,0.476,732.8,01.19,0.508
2014-10-31 04:06:00,2129E-3,5C000000,-0724,0830,12073,027.9,045.4,0.476,732.8,01.19,0.508
2014-10-31 04:07:00,2199E-3,5C000000,-0724,0829,12081,027.9,045.4,0.476,732.8,01.19,0.508
2014-10-31 04:08:00,2226E-3,5C000000,-0724,0829,12339,027.9,045.5,0.476,732.9,01.19,0.508
2014-10-31 04:09:00,2256E-3,5C000000,-0724,0831,12278,028.0,045.5,0.476,732.9,01.19,0.508
2014-10-31 04:10:00,2277E-3,5C000000,-0724,0831,12141,028.0,045.4,0.476,732.8,01.19,0.508
2014-10-31 04:11:00,2111E-3,5C000000,-0724,0831,12228,028.1,045.4,0.476,732.8,01.19,0.508
2014-10-31 04:12:00,2148E-3,5C000000,-0724,0829,12019,028.1,045.4,0.476,732.9,01.19,0.508
2014-10-31 04:13:00,2252E-3,5C000000,-0724,0829,12219,028.2,045.5,0.476,732.9,01.19,0.508
2014-10-31 04:14:00,2069E-3,5C000000,-0724,0830,12219,028.2,045.5,0.476,732.9,01.19,0.508
2014-10-31 04:15:00,2264E-3,5C000000,-0724,0830,12192,028.3,045.4,0.476,732.9,01.19,0.508
2014-10-31 04:16:00,2173E-3,5C000000,-0724,0830,12331,028.3,045.5,0.476,732.9,01.19,0.508
2014-10-31 04:17:00,2215E-3,5C000000,-0724,0831,12187,028.3,045.5,0.475,732.9,01.19,0.508
2014-10-31 04:18:00,2219E-3,5C000000,-0724,0831,12291,028.4,045.5,0.476,732.9,01.19,0.508
2014-10-31 04:19:00,2091E-3,5C000000,-0724,0831,12096,028.4,045.5,0.475,732.9,01.19,0.508
2014-10-31 04:20:00,2046E-3,5C000000,-0724,0830,12119,028.5,045.5,0.475,732.9,01.19,0.508